QPF
0.02 0.02 0.03 0.03 0.03 0.03 0.02 0.01 0.02 0.02 0.02 0.02 0.02 0.02 0.02 0.02 0.02 0.02 0.02 0.02 0.03 0.04 0.03 0.04 0.04 0.04 0.03 0.02 0.02 0.02 0.01 0.02 0.02 0.02 0.02 0.02 0.03 0.03 0.03 0.03 0.03 0.02 0.04
0.01 0.02 0.03 0.03 0.04 0.03 0.02 0.02 0.02 0.02 0.02 0.02 0.02 0.03 0.03 0.03 0.03 0.03 0.03 0.02 0.02 0.03 0.04 0.04 0.05 0.05 0.04 0.03 0.02 0.02 0.01 0.01 0.01 0.02 0.02 0.01 0.02 0.03 0.03 0.03 0.03 0.04 0.06
0.01 0.01 0.02 0.03 0.03 0.03 0.02 0.02 0.02 0.02 0.02 0.02 0.03 0.03 0.03 0.03 0.03 0.03 0.03 0.03 0.02 0.02 0.03 0.04 0.04 0.04 0.03 0.02 0.03 0.03 0.02 0.02 0.01 0.01 0.01 0.01 0.01 0.03 0.03 0.03 0.04 0.05 0.06
0.01 0.01 0.01 0.03 0.02 0.02 0.02 0.02 0.02 0.02 0.02 0.02 0.02 0.02 0.02 0.02 0.02 0.02 0.02 0.02 0.02 0.02 0.02 0.02 0.03 0.03 0.03 0.03 0.03 0.04 0.04 0.03 0.02 0.01 0.00 0.01 0.01 0.03 0.03 0.02 0.03 0.04 0.05
0.01 0.00 0.01 0.02 0.02 0.02 0.01 0.01 0.02 0.02 0.02 0.02 0.01 0.01 0.01 0.01 0.01 0.02 0.01 0.02 0.03 0.03 0.03 0.03 0.02 0.03 0.04 0.03 0.03 0.03 0.03 0.02 0.02 0.01 0.00 0.00 0.01 0.03 0.03 0.02 0.02 0.03 0.03
0.00 0.00 0.01 0.01 0.01 0.01 0.01 0.01 0.01 0.02 0.01 0.02 0.02 0.01 0.01 0.01 0.01 0.01 0.01 0.02 0.02 0.02 0.03 0.03 0.03 0.03 0.04 0.04 0.03 0.02 0.03 0.02 0.02 0.02 0.01 0.01 0.02 0.03 0.03 0.03 0.03 0.04 0.04
0.00 0.00 0.01 0.01 0.01 0.01 0.01 0.01 0.01 0.01 0.01 0.01 0.02 0.02 0.01 0.01 0.01 0.01 0.02 0.03 0.02 0.02 0.02 0.03 0.04 0.03 0.03 0.03 0.03 0.03 0.03 0.01 0.01 0.02 0.02 0.01 0.03 0.04 0.04 0.05 0.05 0.04 0.05
0.00 0.00 0.01 0.01 0.01 0.00 0.00 0.01 0.01 0.01 0.01 0.01 0.01 0.01 0.01 0.01 0.00 0.00 0.01 0.01 0.01 0.02 0.02 0.02 0.03 0.03 0.03 0.03 0.03 0.03 0.04 0.03 0.02 0.02 0.02 0.02 0.04 0.05 0.05 0.05 0.05 0.04 0.04
0.00 0.00 0.00 0.00 0.00 0.00 0.00 0.00 0.00 0.01 0.01 0.01 0.01 0.01 0.01 0.01 0.00 0.00 0.01 0.01 0.01 0.01 0.01 0.01 0.02 0.02 0.03 0.02 0.02 0.03 0.02 0.03 0.02 0.02 0.02 0.03 0.05 0.04 0.03 0.04 0.05 0.05 0.05
0.00 0.00 0.00 0.00 0.00 0.00 0.00 0.00 0.00 0.00 0.00 0.00 0.00 0.00 0.01 0.01 0.00 0.00 0.01 0.01 0.01 0.01 0.01 0.01 0.01 0.01 0.02 0.03 0.02 0.02 0.02 0.03 0.02 0.01 0.02 0.03 0.06 0.06 0.04 0.04 0.04 0.04 0.04
0.01 0.00 0.00 0.00 0.00 0.00 0.00 0.00 0.00 0.00 0.00 0.00 0.00 0.00 0.00 0.00 0.00 0.00 0.01 0.01 0.01 0.01 0.01 0.01 0.00 0.01 0.02 0.02 0.02 0.02 0.02 0.03 0.03 0.01 0.02 0.04 0.05 0.06 0.06 0.05 0.03 0.02 0.03
0.01 0.00 0.00 0.00 0.00 0.00 0.00 0.00 0.00 0.00 0.00 0.00 0.00 0.00 0.00 0.00 0.00 0.00 0.00 0.01 0.01 0.01 0.00 0.00 0.00 0.01 0.02 0.02 0.01 0.02 0.02 0.02 0.03 0.02 0.03 0.04 0.04 0.05 0.06 0.05 0.04 0.03 0.02
0.00 0.00 0.00 0.00 0.00 0.00 0.00 0.00 0.00 0.00 0.00 0.00 0.00 0.00 0.00 0.00 0.00 0.01 0.01 0.01 0.01 0.00 0.00 0.00 0.00 0.00 0.01 0.02 0.02 0.02 0.02 0.02 0.02 0.01 0.02 0.03 0.03 0.04 0.05 0.04 0.04 0.03 0.03
0.00 0.00 0.00 0.00 0.00 0.00 0.00 0.00 0.01 0.00 0.00 0.00 0.00 0.00 0.00 0.00 0.01 0.01 0.02 0.02 0.01 0.00 0.00 0.00 0.00 0.00 0.01 0.01 0.02 0.01 0.02 0.02 0.02 0.02 0.02 0.02 0.02 0.03 0.04 0.04 0.03 0.03 0.03
0.00 0.00 0.00 0.00 0.00 0.00 0.00 0.00 0.00 0.00 0.00 0.00 0.00 0.00 0.00 0.00 0.00 0.00 0.01 0.01 0.01 0.00 0.00 0.00 0.00 0.00 0.01 0.01 0.01 0.01 0.02 0.03 0.03 0.03 0.03 0.02 0.02 0.03 0.03 0.04 0.04 0.03 0.02
0.00 0.00 0.00 0.00 0.00 0.00 0.00 0.00 0.00 0.00 0.00 0.00 0.00 0.00 0.00 0.00 0.00 0.00 0.00 0.00 0.00 0.01 0.01 0.00 0.00 0.00 0.01 0.01 0.02 0.02 0.02 0.03 0.04 0.03 0.03 0.02 0.02 0.02 0.03 0.04 0.05 0.03 0.02
0.00 0.00 0.00 0.00 0.00 0.00 0.00 0.00 0.00 0.00 0.00 0.00 0.00 0.00 0.00 0.00 0.00 0.00 0.00 0.00 0.00 0.00 0.01 0.01 0.01 0.01 0.01 0.01 0.02 0.02 0.02 0.02 0.03 0.05 0.03 0.03 0.03 0.03 0.03 0.04 0.04 0.04 0.03
0.00 0.00 0.00 0.00 0.00 0.00 0.00 0.00 0.00 0.00 0.00 0.00 0.00 0.00 0.00 0.00 0.00 0.00 0.00 0.00 0.00 0.00 0.01 0.01 0.01 0.01 0.01 0.02 0.02 0.03 0.03 0.03 0.02 0.04 0.05 0.03 0.03 0.03 0.03 0.03 0.04 0.04 0.04
0.00 0.01 0.01 0.00 0.00 0.00 0.00 0.00 0.00 0.00 0.00 0.00 0.00 0.00 0.00 0.00 0.00 0.01 0.01 0.00 0.00 0.00 0.01 0.01 0.01 0.01 0.02 0.02 0.02 0.03 0.03 0.02 0.03 0.03 0.05 0.04 0.03 0.02 0.03 0.03 0.03 0.04 0.04
0.00 0.01 0.01 0.00 0.00 0.00 0.00 0.00 0.00 0.00 0.00 0.00 0.00 0.00 0.00 0.00 0.00 0.01 0.01 0.01 0.01 0.01 0.01 0.01 0.01 0.01 0.01 0.02 0.02 0.03 0.03 0.03 0.03 0.03 0.04 0.05 0.04 0.03 0.03 0.03 0.02 0.02 0.03
0.01 0.01 0.00 0.01 0.00 0.00 0.00 0.00 0.00 0.00 0.00 0.00 0.00 0.00 0.00 0.00 0.00 0.01 0.01 0.01 0.01 0.01 0.01 0.01 0.01 0.02 0.01 0.02 0.02 0.02 0.04 0.05 0.04 0.05 0.04 0.04 0.04 0.04 0.04 0.04 0.03 0.02 0.02
0.01 0.01 0.00 0.01 0.01 0.00 0.01 0.01 0.00 0.00 0.00 0.00 0.00 0.00 0.00 0.00 0.00 0.01 0.01 0.01 0.01 0.01 0.01 0.01 0.01 0.01 0.02 0.02 0.02 0.02 0.03 0.04 0.05 0.05 0.05 0.04 0.03 0.04 0.04 0.04 0.03 0.02 0.02
0.01 0.00 0.00 0.00 0.01 0.01 0.01 0.01 0.01 0.01 0.01 0.01 0.00 0.00 0.00 0.00 0.01 0.01 0.01 0.01 0.01 0.01 0.01 0.01 0.01 0.01 0.02 0.02 0.02 0.02 0.03 0.03 0.04 0.05 0.06 0.05 0.04 0.03 0.03 0.03 0.03 0.02 0.02
0.00 0.00 0.00 0.00 0.00 0.01 0.01 0.01 0.01 0.01 0.01 0.01 0.01 0.01 0.01 0.01 0.01 0.01 0.01 0.01 0.01 0.01 0.01 0.01 0.01 0.01 0.01 0.02 0.02 0.02 0.03 0.03 0.03 0.05 0.06 0.05 0.05 0.04 0.02 0.02 0.02 0.02 0.02
0.00 0.00 0.00 0.00 0.00 0.00 0.01 0.01 0.01 0.01 0.01 0.01 0.01 0.01 0.01 0.01 0.01 0.01 0.01 0.01 0.01 0.01 0.01 0.01 0.01 0.01 0.01 0.01 0.02 0.02 0.03 0.03 0.02 0.03 0.05 0.05 0.04 0.03 0.03 0.02 0.02 0.02 0.02
0.00 0.00 0.00 0.00 0.00 0.01 0.01 0.01 0.01 0.01 0.01 0.01 0.01 0.01 0.01 0.02 0.02 0.01 0.02 0.02 0.02 0.01 0.01 0.01 0.01 0.01 0.01 0.01 0.01 0.02 0.02 0.03 0.02 0.03 0.04 0.04 0.04 0.03 0.03 0.02 0.02 0.02 0.01
MSLP
1015.50 1015.33 1015.21 1015.18 1015.26 1015.42 1015.62 1015.79 1015.89 1015.91 1015.86 1015.79 1015.74 1015.76 1015.88 1016.11 1016.40 1016.73 1017.01 1017.23 1017.35 1017.38 1017.34 1017.27 1017.21 1017.17 1017.18 1017.21 1017.25 1017.27 1017.25 1017.19 1017.08 1016.95 1016.81 1016.69 1016.58 1016.51 1016.45 1016.40 1016.35 1016.31 1016.26
1015.00 1014.98 1015.01 1015.12 1015.33 1015.59 1015.85 1016.06 1016.19 1016.21 1016.16 1016.08 1016.05 1016.09 1016.24 1016.50 1016.82 1017.16 1017.46 1017.67 1017.78 1017.80 1017.75 1017.66 1017.58 1017.52 1017.50 1017.51 1017.52 1017.53 1017.51 1017.47 1017.40 1017.33 1017.25 1017.18 1017.13 1017.09 1017.06 1017.01 1016.96 1016.90 1016.84
1014.49 1014.58 1014.73 1014.99 1015.32 1015.69 1016.04 1016.31 1016.48 1016.54 1016.51 1016.46 1016.45 1016.51 1016.67 1016.93 1017.24 1017.56 1017.83 1018.02 1018.12 1018.13 1018.07 1017.98 1017.89 1017.83 1017.80 1017.79 1017.79 1017.79 1017.78 1017.76 1017.74 1017.72 1017.71 1017.71 1017.72 1017.73 1017.72 1017.68 1017.63 1017.55 1017.48
1014.06 1014.23 1014.48 1014.84 1015.28 1015.74 1016.18 1016.52 1016.75 1016.86 1016.89 1016.88 1016.89 1016.96 1017.12 1017.35 1017.62 1017.89 1018.12 1018.27 1018.34 1018.34 1018.29 1018.23 1018.17 1018.13 1018.11 1018.11 1018.12 1018.12 1018.12 1018.13 1018.14 1018.18 1018.23 1018.29 1018.35 1018.39 1018.41 1018.39 1018.33 1018.25 1018.16
1013.82 1014.03 1014.33 1014.76 1015.26 1015.79 1016.29 1016.70 1016.98 1017.16 1017.24 1017.28 1017.32 1017.41 1017.55 1017.74 1017.96 1018.16 1018.33 1018.43 1018.48 1018.49 1018.47 1018.46 1018.45 1018.47 1018.50 1018.53 1018.56 1018.58 1018.60 1018.63 1018.67 1018.73 1018.82 1018.92 1019.02 1019.08 1019.12 1019.10 1019.05 1018.96 1018.87
1013.83 1014.03 1014.36 1014.80 1015.33 1015.89 1016.41 1016.85 1017.18 1017.40 1017.54 1017.63 1017.72 1017.82 1017.96 1018.11 1018.27 1018.41 1018.52 1018.58 1018.62 1018.65 1018.68 1018.74 1018.82 1018.91 1019.01 1019.10 1019.17 1019.21 1019.24 1019.28 1019.33 1019.40 1019.50 1019.62 1019.72 1019.80 1019.83 1019.82 1019.77 1019.69 1019.60
1014.05 1014.25 1014.57 1015.00 1015.52 1016.06 1016.58 1017.02 1017.36 1017.62 1017.80 1017.95 1018.08 1018.21 1018.35 1018.49 1018.61 1018.70 1018.77 1018.81 1018.85 1018.91 1019.01 1019.15 1019.32 1019.50 1019.68 1019.82 1019.93 1020.00 1020.04 1020.07 1020.11 1020.18 1020.27 1020.37 1020.46 1020.53 1020.56 1020.55 1020.50 1020.43 1020.35
1014.41 1014.62 1014.94 1015.36 1015.85 1016.35 1016.82 1017.24 1017.57 1017.84 1018.06 1018.25 1018.43 1018.61 1018.77 1018.92 1019.03 1019.10 1019.15 1019.19 1019.25 1019.35 1019.51 1019.73 1019.98 1020.24 1020.48 1020.68 1020.82 1020.90 1020.94 1020.95 1020.98 1021.02 1021.08 1021.15 1021.22 1021.28 1021.30 1021.29 1021.25 1021.19 1021.14
1014.80 1015.05 1015.40 1015.82 1016.29 1016.75 1017.17 1017.54 1017.85 1018.12 1018.35 1018.59 1018.82 1019.05 1019.26 1019.43 1019.57 1019.66 1019.71 1019.77 1019.86 1020.00 1020.20 1020.47 1020.78 1021.09 1021.37 1021.60 1021.75 1021.83 1021.86 1021.86 1021.86 1021.87 1021.90 1021.95 1021.99 1022.03 1022.05 1022.04 1022.01 1021.98 1021.95
1015.10 1015.44 1015.86 1016.32 1016.79 1017.23 1017.61 1017.94 1018.22 1018.47 1018.72 1018.98 1019.26 1019.54 1019.81 1020.04 1020.21 1020.34 1020.43 1020.51 1020.63 1020.80 1021.03 1021.33 1021.66 1021.99 1022.29 1022.51 1022.66 1022.74 1022.75 1022.73 1022.71 1022.69 1022.70 1022.72 1022.75 1022.78 1022.80 1022.80 1022.80 1022.79 1022.79
1015.24 1015.71 1016.24 1016.78 1017.29 1017.73 1018.10 1018.41 1018.66 1018.90 1019.15 1019.44 1019.76 1020.09 1020.41 1020.69 1020.92 1021.10 1021.23 1021.36 1021.50 1021.69 1021.94 1022.24 1022.57 1022.89 1023.17 1023.38 1023.51 1023.56 1023.57 1023.53 1023.50 1023.47 1023.46 1023.47 1023.49 1023.52 1023.54 1023.56 1023.58 1023.61 1023.63
1015.19 1015.82 1016.49 1017.13 1017.71 1018.20 1018.59 1018.90 1019.15 1019.38 1019.64 1019.94 1020.28 1020.65 1021.01 1021.34 1021.62 1021.85 1022.03 1022.20 1022.38 1022.59 1022.84 1023.13 1023.44 1023.74 1023.98 1024.17 1024.27 1024.32 1024.31 1024.28 1024.24 1024.21 1024.20 1024.20 1024.22 1024.25 1024.27 1024.31 1024.35 1024.40 1024.45
1015.00 1015.78 1016.57 1017.34 1018.01 1018.57 1019.01 1019.35 1019.62 1019.87 1020.13 1020.43 1020.78 1021.16 1021.54 1021.90 1022.22 1022.50 1022.73 1022.95 1023.16 1023.40 1023.67 1023.95 1024.25 1024.52 1024.74 1024.90 1025.00 1025.04 1025.04 1025.01 1024.98 1024.95 1024.94 1024.95 1024.96 1024.98 1025.00 1025.04 1025.09 1025.15 1025.21
1014.73 1015.61 1016.51 1017.38 1018.15 1018.80 1019.31 1019.70 1020.02 1020.30 1020.57 1020.88 1021.22 1021.59 1021.97 1022.34 1022.68 1022.99 1023.27 1023.54 1023.81 1024.09 1024.38 1024.68 1024.98 1025.25 1025.47 1025.63 1025.74 1025.79 1025.81 1025.80 1025.78 1025.77 1025.76 1025.75 1025.74 1025.74 1025.75 1025.77 1025.81 1025.86 1025.93
1014.44 1015.37 1016.34 1017.28 1018.13 1018.86 1019.45 1019.93 1020.30 1020.63 1020.93 1021.23 1021.56 1021.91 1022.27 1022.63 1022.98 1023.31 1023.64 1023.96 1024.29 1024.63 1024.98 1025.32 1025.66 1025.95 1026.20 1026.40 1026.54 1026.63 1026.68 1026.70 1026.71 1026.70 1026.69 1026.66 1026.62 1026.58 1026.55 1026.53 1026.54 1026.56 1026.61
1014.19 1015.12 1016.10 1017.06 1017.96 1018.76 1019.44 1020.00 1020.46 1020.85 1021.18 1021.49 1021.80 1022.12 1022.45 1022.78 1023.12 1023.48 1023.84 1024.22 1024.62 1025.04 1025.47 1025.89 1026.29 1026.65 1026.96 1027.22 1027.42 1027.57 1027.67 1027.74 1027.78 1027.78 1027.75 1027.70 1027.62 1027.53 1027.44 1027.37 1027.31 1027.29 1027.30
1013.99 1014.88 1015.82 1016.78 1017.70 1018.55 1019.31 1019.96 1020.51 1020.97 1021.35 1021.67 1021.97 1022.26 1022.55 1022.86 1023.19 1023.55 1023.95 1024.39 1024.86 1025.36 1025.88 1026.38 1026.87 1027.32 1027.72 1028.06 1028.34 1028.57 1028.74 1028.87 1028.94 1028.97 1028.94 1028.86 1028.74 1028.60 1028.45 1028.30 1028.19 1028.10 1028.05
1013.82 1014.65 1015.54 1016.46 1017.39 1018.28 1019.11 1019.85 1020.49 1021.02 1021.46 1021.81 1022.11 1022.37 1022.63 1022.91 1023.23 1023.60 1024.02 1024.51 1025.05 1025.63 1026.22 1026.81 1027.39 1027.92 1028.41 1028.85 1029.22 1029.54 1029.80 1030.00 1030.13 1030.18 1030.17 1030.09 1029.95 1029.76 1029.56 1029.35 1029.17 1029.02 1028.90
1013.62 1014.39 1015.23 1016.14 1017.07 1018.00 1018.89 1019.71 1020.44 1021.05 1021.54 1021.92 1022.23 1022.49 1022.73 1022.99 1023.30 1023.66 1024.11 1024.63 1025.21 1025.84 1026.49 1027.15 1027.79 1028.40 1028.97 1029.49 1029.96 1030.37 1030.72 1031.00 1031.20 1031.32 1031.35 1031.29 1031.15 1030.96 1030.73 1030.49 1030.25 1030.04 1029.85
1013.32 1014.07 1014.90 1015.80 1016.75 1017.72 1018.68 1019.58 1020.38 1021.06 1021.61 1022.03 1022.36 1022.62 1022.86 1023.11 1023.41 1023.78 1024.23 1024.77 1025.36 1026.01 1026.68 1027.36 1028.03 1028.68 1029.31 1029.89 1030.44 1030.94 1031.38 1031.76 1032.05 1032.25 1032.35 1032.36 1032.27 1032.11 1031.90 1031.65 1031.39 1031.13 1030.88
1012.86 1013.65 1014.51 1015.45 1016.44 1017.47 1018.49 1019.46 1020.33 1021.07 1021.66 1022.12 1022.47 1022.75 1022.99 1023.25 1023.56 1023.93 1024.38 1024.91 1025.50 1026.12 1026.78 1027.44 1028.10 1028.75 1029.39 1030.02 1030.62 1031.19 1031.71 1032.18 1032.58 1032.89 1033.09 1033.20 1033.20 1033.12 1032.96 1032.74 1032.49 1032.21 1031.92
1012.23 1013.11 1014.05 1015.06 1016.13 1017.22 1018.31 1019.34 1020.26 1021.04 1021.68 1022.17 1022.54 1022.84 1023.11 1023.38 1023.71 1024.09 1024.54 1025.04 1025.60 1026.18 1026.78 1027.39 1028.01 1028.62 1029.24 1029.87 1030.49 1031.11 1031.71 1032.27 1032.77 1033.19 1033.51 1033.74 1033.86 1033.89 1033.82 1033.68 1033.46 1033.20 1032.89
1011.46 1012.46 1013.51 1014.62 1015.78 1016.96 1018.11 1019.19 1020.14 1020.96 1021.61 1022.12 1022.52 1022.84 1023.14 1023.46 1023.81 1024.21 1024.66 1025.15 1025.66 1026.19 1026.72 1027.25 1027.79 1028.34 1028.92 1029.52 1030.14 1030.79 1031.43 1032.06 1032.64 1033.16 1033.61 1033.96 1034.22 1034.37 1034.42 1034.37 1034.23 1034.01 1033.71
1010.59 1011.72 1012.90 1014.13 1015.39 1016.65 1017.86 1018.97 1019.95 1020.77 1021.43 1021.95 1022.37 1022.73 1023.07 1023.43 1023.82 1024.26 1024.72 1025.21 1025.69 1026.16 1026.62 1027.07 1027.53 1028.01 1028.53 1029.09 1029.69 1030.33 1030.99 1031.65 1032.29 1032.89 1033.43 1033.89 1034.27 1034.55 1034.72 1034.79 1034.74 1034.58 1034.32
1009.73 1010.96 1012.25 1013.59 1014.95 1016.28 1017.53 1018.67 1019.66 1020.47 1021.13 1021.66 1022.10 1022.49 1022.88 1023.29 1023.74 1024.22 1024.72 1025.21 1025.68 1026.12 1026.53 1026.92 1027.31 1027.72 1028.18 1028.69 1029.26 1029.88 1030.53 1031.19 1031.85 1032.49 1033.08 1033.62 1034.08 1034.47 1034.76 1034.93 1034.98 1034.91 1034.71
1008.97 1010.25 1011.62 1013.03 1014.46 1015.84 1017.13 1018.28 1019.26 1020.07 1020.72 1021.25 1021.70 1022.13 1022.57 1023.05 1023.56 1024.10 1024.65 1025.17 1025.65 1026.08 1026.47 1026.82 1027.17 1027.54 1027.96 1028.43 1028.96 1029.54 1030.16 1030.79 1031.43 1032.06 1032.66 1033.23 1033.75 1034.21 1034.59 1034.86 1035.01 1035.03 1034.91
Thickness
5673 5675 5676 5677 5677 5678 5678 5678 5678 5678 5679 5680 5681 5681 5682 5682 5683 5683 5684 5684 5685 5686 5687 5687 5688 5689 5689 5690 5691 5691 5692 5693 5693 5694 5696 5697 5698 5699 5699 5699 5700 5700 5701
5674 5673 5674 5674 5674 5674 5674 5674 5674 5674 5675 5676 5676 5677 5677 5678 5678 5679 5679 5680 5681 5681 5682 5682 5683 5684 5684 5685 5686 5687 5687 5688 5689 5690 5691 5692 5693 5694 5695 5695 5695 5696 5696
5671 5671 5670 5670 5670 5670 5670 5670 5670 5670 5671 5671 5672 5672 5673 5673 5673 5674 5674 5675 5675 5676 5676 5677 5678 5679 5680 5681 5681 5682 5683 5683 5684 5685 5686 5687 5688 5689 5690 5691 5691 5692 5692
5668 5667 5667 5666 5666 5666 5666 5666 5665 5665 5666 5666 5667 5667 5668 5668 5668 5668 5668 5669 5669 5670 5671 5671 5672 5673 5675 5676 5676 5677 5678 5678 5679 5680 5681 5682 5683 5684 5685 5686 5687 5687 5687
5664 5663 5662 5662 5661 5661 5661 5661 5661 5660 5660 5661 5661 5661 5662 5662 5662 5662 5663 5663 5663 5664 5665 5665 5666 5668 5669 5670 5671 5671 5672 5673 5673 5675 5676 5677 5678 5680 5680 5681 5682 5682 5682
5659 5658 5657 5657 5657 5656 5656 5656 5655 5655 5655 5655 5655 5655 5655 5655 5656 5656 5656 5657 5657 5658 5659 5660 5660 5662 5663 5664 5665 5666 5666 5667 5668 5669 5671 5672 5673 5674 5675 5675 5676 5677 5677
5654 5653 5652 5652 5651 5651 5650 5650 5650 5649 5649 5649 5649 5649 5649 5649 5649 5650 5650 5650 5651 5652 5653 5654 5654 5656 5657 5658 5659 5659 5660 5661 5663 5663 5665 5666 5668 5669 5670 5670 5671 5672 5672
5648 5647 5646 5645 5645 5644 5644 5644 5644 5643 5643 5642 5642 5642 5642 5642 5643 5643 5644 5645 5645 5646 5647 5647 5648 5649 5651 5652 5652 5653 5654 5655 5656 5657 5658 5660 5662 5663 5664 5665 5665 5666 5666
5641 5640 5639 5639 5638 5638 5637 5637 5636 5636 5636 5635 5635 5635 5635 5635 5636 5636 5637 5638 5638 5639 5640 5641 5642 5643 5644 5645 5646 5646 5647 5648 5649 5650 5652 5654 5656 5657 5658 5659 5659 5660 5660
5634 5633 5632 5632 5631 5631 5630 5629 5629 5628 5628 5628 5627 5627 5627 5627 5628 5629 5630 5631 5632 5633 5633 5634 5635 5636 5636 5637 5638 5639 5640 5642 5643 5644 5646 5647 5649 5651 5652 5652 5653 5653 5654
5626 5626 5625 5624 5624 5623 5622 5621 5621 5620 5620 5620 5619 5619 5619 5620 5620 5620 5621 5623 5624 5625 5626 5627 5627 5628 5629 5630 5631 5632 5633 5634 5635 5637 5639 5640 5642 5644 5645 5646 5646 5647 5648
5620 5619 5618 5617 5616 5615 5615 5614 5613 5612 5612 5611 5611 5611 5611 5611 5611 5612 5613 5614 5616 5617 5618 5619 5619 5620 5621 5622 5622 5624 5625 5626 5627 5628 5631 5633 5635 5637 5638 5639 5640 5640 5641
5614 5613 5611 5611 5609 5608 5607 5606 5605 5604 5604 5603 5603 5603 5603 5603 5603 5603 5604 5605 5607 5608 5609 5610 5610 5611 5612 5613 5614 5615 5616 5618 5619 5620 5622 5625 5627 5629 5630 5631 5632 5633 5634
5607 5606 5604 5603 5602 5600 5599 5598 5597 5596 5595 5595 5594 5594 5594 5594 5594 5594 5595 5596 5598 5599 5600 5600 5601 5602 5603 5604 5605 5606 5607 5609 5610 5612 5613 5616 5618 5620 5622 5624 5624 5626 5627
5600 5599 5597 5596 5594 5592 5591 5590 5588 5588 5587 5586 5586 5586 5586 5585 5585 5585 5586 5587 5588 5589 5590 5591 5592 5592 5594 5595 5595 5596 5597 5599 5600 5602 5604 5606 5608 5611 5613 5615 5616 5617 5619
5594 5592 5590 5588 5587 5585 5583 5581 5580 5579 5578 5578 5577 5577 5577 5577 5576 5576 5577 5577 5578 5579 5580 5581 5582 5583 5583 5584 5585 5586 5587 5588 5590 5592 5594 5596 5598 5600 5603 5605 5606 5608 5610
5588 5585 5583 5581 5579 5577 5575 5572 5571 5570 5570 5569 5568 5568 5568 5567 5567 5567 5567 5567 5568 5569 5570 5571 5572 5572 5572 5573 5574 5575 5576 5577 5579 5581 5583 5585 5587 5589 5592 5594 5596 5598 5600
5581 5578 5575 5573 5570 5569 5566 5564 5562 5561 5560 5559 5559 5558 5558 5557 5557 5557 5557 5557 5558 5558 5559 5560 5561 5560 5560 5561 5562 5563 5564 5566 5568 5570 5572 5574 5576 5577 5580 5583 5585 5587 5589
5575 5571 5567 5565 5562 5560 5558 5555 5553 5551 5550 5549 5549 5548 5548 5547 5547 5547 5547 5547 5547 5547 5548 5549 5548 5549 5548 5549 5550 5551 5552 5554 5555 5558 5560 5562 5564 5566 5568 5571 5573 5576 5578
5566 5562 5559 5556 5553 5551 5548 5545 5543 5541 5540 5539 5539 5538 5537 5537 5536 5537 5537 5537 5537 5537 5536 5537 5537 5537 5537 5538 5539 5539 5539 5542 5544 5546 5548 5550 5552 5554 5556 5558 5561 5564 5566
5556 5553 5550 5548 5545 5542 5540 5536 5534 5531 5530 5529 5528 5527 5527 5526 5526 5526 5526 5526 5526 5526 5525 5526 5526 5525 5525 5526 5526 5525 5527 5529 5532 5534 5537 5539 5541 5542 5544 5546 5549 5551 5553
5548 5545 5542 5539 5536 5534 5532 5530 5526 5523 5520 5519 5518 5516 5516 5516 5516 5516 5516 5516 5516 5515 5515 5515 5516 5514 5513 5514 5513 5513 5513 5516 5519 5522 5524 5527 5528 5530 5531 5533 5536 5538 5540
5539 5537 5535 5531 5528 5525 5522 5518 5515 5511 5509 5507 5507 5506 5506 5505 5505 5505 5505 5505 5506 5506 5505 5505 5506 5506 5503 5502 5503 5503 5503 5505 5505 5509 5511 5513 5514 5516 5518 5521 5523 5525 5527
5531 5528 5525 5521 5518 5515 5512 5509 5507 5505 5502 5501 5499 5497 5495 5495 5494 5494 5494 5495 5495 5495 5495 5494 5495 5496 5495 5494 5493 5493 5494 5495 5494 5495 5497 5499 5501 5503 5505 5507 5509 5512 5514
5520 5517 5514 5511 5507 5505 5502 5500 5498 5495 5493 5490 5488 5486 5485 5484 5484 5484 5484 5484 5484 5484 5484 5484 5484 5485 5485 5484 5484 5483 5483 5483 5484 5484 5484 5485 5487 5490 5492 5494 5496 5499 5501
5509 5505 5503 5500 5497 5494 5491 5490 5488 5486 5483 5480 5478 5475 5474 5473 5473 5473 5473 5473 5473 5473 5473 5473 5473 5474 5474 5474 5474 5474 5474 5474 5473 5473 5472 5472 5473 5476 5479 5481 5483 5486 5488